• In Czech Republic
  • List of Countries
  • For 7 days
  • Water Temperature
  • Satellite Maps
  • Weather Map
  • Weather Widgets
  • user-avatar
    Login

    Hourly Weather Nakhchivan

    Today, 15 October, Monday

    Time Temperature Precipitation Wind Pressure Humidity
    00:00 +19°C° 0 mm 1 mps 690 mmHg 54%
    01:00 +18°C° 0 mm 1 mps 690 mmHg 55%
    02:00 +18°C° 0 mm 1 mps 690 mmHg 55%
    03:00 +16°C° 0 mm 0 mps 690 mmHg 56%
    04:00 +16°C° 0 mm 1 mps 690 mmHg 56%
    05:00 +16°C° 0 mm 1 mps 690 mmHg 57%
    06:00 +16°C° 0 mm 1 mps 690 mmHg 57%
    07:00 +18°C° 0 mm 1 mps 690 mmHg 52%
    08:00 +20°C° 0 mm 1 mps 691 mmHg 46%
    09:00 +22°C° 0 mm 1 mps 691 mmHg 41%
    10:00 +23°C° 0 mm 1 mps 691 mmHg 39%
    11:00 +24°C° 0 mm 2 mps 691 mmHg 36%
    12:00 +25°C° 0 mm 2 mps 691 mmHg 34%
    13:00 +25°C° 0 mm 2 mps 691 mmHg 33%
    14:00 +25°C° 0 mm 2 mps 691 mmHg 32%
    15:00 +25°C° 0 mm 2 mps 691 mmHg 31%
    16:00 +24°C° 0 mm 2 mps 691 mmHg 34%
    17:00 +23°C° 0 mm 2 mps 691 mmHg 37%
    18:00 +22°C° 0 mm 1 mps 691 mmHg 40%
    19:00 +22°C° 0 mm 1 mps 691 mmHg 43%
    20:00 +21°C° 0 mm 1 mps 691 mmHg 46%
    21:00 +20°C° 0 mm 1 mps 691 mmHg 49%
    22:00 +20°C° 0 mm 1 mps 691 mmHg 51%
    23:00 +19°C° 0 mm 1 mps 692 mmHg 53%

    Tomorrow, 16 October, Tuesday

    Time Temperature Precipitation Wind Pressure Humidity
    00:00 +19°C° 0 mm 1 mps 692 mmHg 55%
    01:00 +18°C° 0 mm 1 mps 692 mmHg 56%
    02:00 +18°C° 0 mm 1 mps 692 mmHg 58%
    03:00 +18°C° 0 mm 1 mps 692 mmHg 60%
    04:00 +16°C° 0 mm 1 mps 692 mmHg 61%
    05:00 +16°C° 0 mm 1 mps 692 mmHg 62%
    06:00 +15°C° 0 mm 1 mps 692 mmHg 63%
    07:00 +18°C° 0 mm 1 mps 692 mmHg 58%
    08:00 +19°C° 0 mm 1 mps 693 mmHg 52%
    09:00 +21°C° 0 mm 1 mps 693 mmHg 47%
    10:00 +21°C° 0 mm 2 mps 693 mmHg 43%
    11:00 +21°C° 0 mm 2 mps 693 mmHg 39%
    12:00 +23°C° 0 mm 2 mps 693 mmHg 36%
    13:00 +24°C° 0 mm 2 mps 692 mmHg 34%
    14:00 +24°C° 0 mm 2 mps 692 mmHg 33%
    15:00 +25°C° 0 mm 2 mps 692 mmHg 32%
    16:00 +24°C° 0 mm 2 mps 692 mmHg 35%
    17:00 +21°C° 0 mm 2 mps 692 mmHg 38%
    18:00 +20°C° 0 mm 2 mps 692 mmHg 42%
    19:00 +20°C° 0 mm 2 mps 692 mmHg 45%
    20:00 +19°C° 0 mm 2 mps 692 mmHg 48%
    21:00 +19°C° 0 mm 1 mps 692 mmHg 51%
    22:00 +19°C° 0 mm 1 mps 692 mmHg 53%
    23:00 +18°C° 0 mm 1 mps 692 mmHg 56%

    Day after tomorrow, 17 October, Wednesday

    Time Temperature Precipitation Wind Pressure Humidity
    00:00 +18°C° 0 mm 1 mps 692 mmHg 58%
    01:00 +16°C° 0 mm 1 mps 692 mmHg 59%
    02:00 +16°C° 0 mm 1 mps 692 mmHg 61%
    03:00 +16°C° 0 mm 1 mps 692 mmHg 62%
    04:00 +15°C° 0 mm 1 mps 692 mmHg 63%
    05:00 +15°C° 0 mm 1 mps 692 mmHg 64%
    06:00 +14°C° 0 mm 1 mps 692 mmHg 65%
    07:00 +16°C° 0 mm 1 mps 692 mmHg 60%
    08:00 +18°C° 0 mm 1 mps 693 mmHg 54%
    09:00 +20°C° 0 mm 1 mps 693 mmHg 48%
    10:00 +21°C° 0 mm 1 mps 693 mmHg 44%
    11:00 +21°C° 0 mm 2 mps 692 mmHg 40%
    12:00 +23°C° 0 mm 2 mps 692 mmHg 36%
    13:00 +23°C° 0 mm 2 mps 692 mmHg 35%
    14:00 +24°C° 0 mm 2 mps 692 mmHg 33%
    15:00 +24°C° 0 mm 2 mps 691 mmHg 32%
    16:00 +23°C° 0 mm 2 mps 691 mmHg 35%
    17:00 +21°C° 0 mm 2 mps 691 mmHg 38%
    18:00 +20°C° 0 mm 2 mps 691 mmHg 42%
    19:00 +20°C° 0 mm 1 mps 691 mmHg 45%
    20:00 +20°C° 0 mm 1 mps 691 mmHg 48%
    21:00 +19°C° 0 mm 1 mps 692 mmHg 51%
    22:00 +19°C° 0 mm 1 mps 691 mmHg 53%
    23:00 +18°C° 0 mm 1 mps 691 mmHg 55%

    18 October, Thursday

    Time Temperature Precipitation Wind Pressure Humidity
    00:00 +18°C° 0 mm 1 mps 691 mmHg 57%
    01:00 +16°C° 0 mm 1 mps 691 mmHg 59%
    02:00 +16°C° 0 mm 1 mps 691 mmHg 60%
    03:00 +15°C° 0 mm 1 mps 690 mmHg 61%
    04:00 +15°C° 0 mm 1 mps 690 mmHg 62%
    05:00 +14°C° 0 mm 0 mps 690 mmHg 63%
    06:00 +13°C° 0 mm 0 mps 690 mmHg 64%
    07:00 +15°C° 0 mm 0 mps 690 mmHg 57%
    08:00 +17°C° 0 mm 0 mps 691 mmHg 50%
    09:00 +18°C° 0 mm 0 mps 691 mmHg 43%
    10:00 +21°C° 0 mm 1 mps 691 mmHg 40%
    11:00 +23°C° 0 mm 1 mps 691 mmHg 37%
    12:00 +24°C° 0 mm 1 mps 690 mmHg 34%
    13:00 +24°C° 0 mm 1 mps 690 mmHg 33%
    14:00 +24°C° 0 mm 2 mps 690 mmHg 31%
    15:00 +25°C° 0 mm 2 mps 690 mmHg 30%
    16:00 +24°C° 0 mm 1 mps 690 mmHg 33%
    17:00 +23°C° 0 mm 1 mps 690 mmHg 36%
    18:00 +21°C° 0 mm 1 mps 690 mmHg 39%
    19:00 +21°C° 0 mm 1 mps 690 mmHg 41%
    20:00 +20°C° 0 mm 1 mps 690 mmHg 42%
    21:00 +20°C° 0 mm 1 mps 690 mmHg 44%
    22:00 +19°C° 0 mm 1 mps 690 mmHg 45%
    23:00 +19°C° 0 mm 1 mps 690 mmHg 46%

    19 October, Friday

    Time Temperature Precipitation Wind Pressure Humidity
    00:00 +18°C° 0 mm 1 mps 690 mmHg 47%
    01:00 +18°C° 0 mm 1 mps 690 mmHg 48%
    02:00 +16°C° 0 mm 1 mps 690 mmHg 48%
    03:00 +16°C° 0 mm 1 mps 690 mmHg 49%
    04:00 +16°C° 0 mm 1 mps 690 mmHg 49%
    05:00 +15°C° 0 mm 1 mps 690 mmHg 50%
    06:00 +15°C° 0 mm 1 mps 690 mmHg 50%
    07:00 +18°C° 0 mm 1 mps 690 mmHg 44%
    08:00 +18°C° 0 mm 0 mps 691 mmHg 39%
    09:00 +20°C° 0 mm 0 mps 691 mmHg 33%
    10:00 +23°C° 0 mm 1 mps 691 mmHg 31%
    11:00 +24°C° 0 mm 1 mps 691 mmHg 29%
    12:00 +25°C° 0 mm 1 mps 691 mmHg 27%
    13:00 +25°C° 0 mm 1 mps 690 mmHg 26%
    14:00 +26°C° 0 mm 2 mps 690 mmHg 25%
    15:00 +26°C° 0 mm 2 mps 690 mmHg 25%
    16:00 +25°C° 0 mm 1 mps 690 mmHg 28%
    17:00 +23°C° 0 mm 1 mps 690 mmHg 31%
    18:00 +22°C° 0 mm 1 mps 690 mmHg 34%
    19:00 +22°C° 0 mm 1 mps 690 mmHg 36%
    20:00 +21°C° 0 mm 1 mps 690 mmHg 39%
    21:00 +20°C° 0 mm 1 mps 690 mmHg 41%
    22:00 +20°C° 0 mm 1 mps 690 mmHg 42%
    23:00 +19°C° 0 mm 1 mps 690 mmHg 44%

    20 October, Saturday

    Time Temperature Precipitation Wind Pressure Humidity
    00:00 +19°C° 0 mm 1 mps 690 mmHg 45%
    01:00 +19°C° 0 mm 1 mps 690 mmHg 45%
    02:00 +18°C° 0 mm 1 mps 689 mmHg 46%
    03:00 +18°C° 0 mm 1 mps 689 mmHg 46%
    04:00 +18°C° 0 mm 1 mps 689 mmHg 47%
    05:00 +16°C° 0 mm 1 mps 689 mmHg 49%
    06:00 +16°C° 0 mm 1 mps 689 mmHg 50%
    07:00 +19°C° 0 mm 1 mps 690 mmHg 44%
    08:00 +20°C° 0 mm 1 mps 690 mmHg 39%
    09:00 +22°C° 0 mm 1 mps 690 mmHg 33%
    10:00 +23°C° 0 mm 1 mps 690 mmHg 31%
    11:00 +24°C° 0 mm 1 mps 690 mmHg 29%
    12:00 +25°C° 0 mm 1 mps 690 mmHg 27%
    13:00 +26°C° 0 mm 1 mps 689 mmHg 27%
    14:00 +26°C° 0 mm 2 mps 689 mmHg 26%
    15:00 +26°C° 0 mm 2 mps 688 mmHg 26%
    16:00 +25°C° 0 mm 1 mps 689 mmHg 28%
    17:00 +24°C° 0 mm 1 mps 689 mmHg 31%
    18:00 +23°C° 0 mm 1 mps 689 mmHg 34%
    19:00 +22°C° 0.1 mm 1 mps 689 mmHg 36%
    20:00 +22°C° 0.1 mm 1 mps 689 mmHg 37%
    21:00 +22°C° 0.1 mm 1 mps 689 mmHg 39%
    22:00 +21°C° 0.1 mm 1 mps 689 mmHg 41%
    23:00 +21°C° 0.1 mm 1 mps 688 mmHg 42%
    Show more